This demonstration page uses our WeatherBlox Daily Observations layout. Learn more.

39.08367, -84.50855

Hourly Observations for October 29, 2019

Temp ( °F °C ) Dew Point ( °F °C ) Humidity (%) Winds ( mph kmh ) Pressure ( in mb ) Visibility ( mi km ) Precip ( " mm )
12:00 am 00:00 Clear with Mist and Fog 46 7.8 46 7.8 100 100 Calm 30.07 1018 1.5 2.41401 0 0
12:04 am 00:04 Mostly Clear with Mist and Fog 47 8.3 46 7.8 97 97 Calm 30.07 1018 2.5 4.02335 0 0
12:10 am 00:10 Mostly Cloudy with Mist and Fog 47 8.3 46 7.8 97 97 Calm 30.07 1018 1 1.60934 0 0
12:16 am 00:16 Mostly Cloudy with Fog 47 8.3 47 8.3 100 100 Calm 30.07 1018 0.25 0.402335 0 0
12:30 am 00:30 Mostly Cloudy with Fog 44 6.7 44 6.7 100 100 NNE 3 6 30.08 1019 0.5 0.80467 0 0
12:35 am 00:35 Mostly Cloudy with Mist and Fog 46 7.8 46 7.8 100 100 Calm 30.08 1019 1 1.60934 0 0
12:44 am 00:44 Partly Cloudy with Mist and Fog 46 7.8 46 7.8 100 100 Calm 30.08 1019 3 4.82802 0 0
12:53 am 00:53 Mostly Clear with Mist and Fog 46 7.8 46 7.8 100 100 Calm 30.06 1018 3 4.82802 0 0
1:53 am 01:53 Mostly Cloudy 46 7.8 45 7.2 96 96 Calm 30.07 1018 8 12.87472 0 0
2:19 am 02:19 Mostly Cloudy with Mist and Fog 47 8.3 46 7.8 97 97 Calm 30.08 1019 1.75 2.816345 0 0
2:30 am 02:30 Mostly Clear with Mist and Fog 48 8.9 47 8.3 96 96 Calm 30.08 1019 4 6.43736 0 0
2:44 am 02:44 Partly Cloudy with Mist and Fog 45 7.2 45 7.2 100 100 Calm 30.08 1019 1.75 2.816345 0 0
2:53 am 02:53 Mostly Cloudy with Mist and Fog 47 8.3 46 7.8 97 97 Calm 30.07 1018 1.75 2.816345 0 0
2:55 am 02:55 Mostly Cloudy with Mist and Fog 47 8.3 47 8.3 100 100 Calm 30.08 1019 4 6.43736 0 0
3:53 am 03:53 Mostly Cloudy with Mist and Fog 46 7.8 45 7.2 96 96 Calm 30.07 1018 5 8.0467 0 0
4:53 am 04:53 Cloudy 48 8.9 47 8.3 96 96 Calm 30.09 1019 10 16.0934 0 0
5:50 am 05:50 Cloudy 50 10 48 9 94 94 Calm 30.11 1020 10 16.0934 0 0
5:53 am 05:53 Cloudy 50 10 50 10 100 100 Calm 30.1 1019 10 16.0934 0 0
6:53 am 06:53 Mostly Cloudy 50 10 50 10 100 100 Calm 30.1 1019 8 12.87472 0 0
7:04 am 07:04 Partly Cloudy 50 10 49 9.4 96 96 Calm 30.12 1020 9 14.48406 0 0
7:53 am 07:53 Partly Cloudy with Mist and Fog 50 10 49 9.4 96 96 Calm 30.13 1020 5 8.0467 0 0
8:15 am 08:15 Cloudy 50 10 50 10 100 100 Calm 30.15 1021 7 11.26538 0 0
8:53 am 08:53 Cloudy 52 11.1 51 10.6 97 97 Calm 30.15 1021 7 11.26538 0 0
9:53 am 09:53 Cloudy 53 11.7 52 11.1 96 96 Calm 30.17 1022 7 11.26538 0 0
10:53 am 10:53 Cloudy 56 13.3 53 11.7 90 90 SSW 6 9 30.19 1022 10 16.0934 0 0
11:53 am 11:53 Cloudy 57 13.9 51 10.6 81 81 SSW 8 13 30.2 1023 10 16.0934 0 0
12:53 pm 12:53 Cloudy 59 15 50 10 72 72 S 9 15 30.21 1023 10 16.0934 0 0
1:53 pm 13:53 Cloudy 59 15 51 10.6 75 75 SSW 8 13 30.19 1022 10 16.0934 0 0
2:53 pm 14:53 Cloudy 61 16.1 51 10.6 70 70 SSE 7 11 30.16 1021 10 16.0934 0 0
3:53 pm 15:53 Cloudy 60 15.6 51 10.6 72 72 SSE 5 7 30.18 1022 10 16.0934 0 0
4:48 pm 16:48 Cloudy 61 16 52 11 72 72 S 8 13 30.19 1022 10 16.0934 0 0
4:53 pm 16:53 Cloudy 60 15.6 51 10.6 72 72 S 7 11 30.19 1023 10 16.0934 0 0
5:53 pm 17:53 Cloudy 60 15.6 52 11.1 75 75 SSE 3 6 30.19 1022 10 16.0934 0 0
6:53 pm 18:53 Cloudy 59 15 51 10.6 75 75 Calm 30.2 1023 10 16.0934 0 0
7:53 pm 19:53 Cloudy 56 13.3 53 11.7 90 90 Calm 30.21 1023 10 16.0934 0 0
8:53 pm 20:53 Clear 52 11.1 51 10.6 97 97 Calm 30.21 1023 9 14.48406 0 0
9:32 pm 21:32 Mostly Cloudy 50 10 50 10 100 100 Calm 30.22 1023 10 16.0934 0 0
9:53 pm 21:53 Mostly Clear 50 10 49 9.4 96 96 Calm 30.22 1023 10 16.0934 0 0
10:53 pm 22:53 Clear 47 8.3 47 8.3 100 100 Calm 30.22 1023 10 16.0934 0 0
11:05 pm 23:05 Clear with Mist and Fog 48 8.9 47 8.3 96 96 Calm 30.23 1024 0.75 1.207005 0 0
11:15 pm 23:15 Clear with Mist and Fog 49 9.4 48 8.9 97 97 Calm 30.23 1024 2.5 4.02335 0 0
11:24 pm 23:24 Mostly Cloudy with Mist and Fog 48 8.9 48 8.9 100 100 Calm 30.23 1024 1 1.60934 0 0
11:30 pm 23:30 Mostly Cloudy with Fog 47 8.3 46 7.8 97 97 E 3 6 30.23 1024 0.25 0.402335 0 0
11:40 pm 23:40 Mostly Cloudy with Mist and Fog 47 8.3 47 8.3 100 100 Calm 30.22 1023 1 1.60934 0 0
11:48 pm 23:48 Mostly Clear with Mist and Fog 46 8 46 8 100 100 Calm 30.22 1023 1.5 2.41401 0 0
11:53 pm 23:53 Mostly Clear with Mist and Fog 48 8.9 47 8.3 96 96 Calm 30.21 1023 2.5 4.02335 0 0

Powered by AerisWeather